FENGYUN 1C DEB

Satellite information

Favourite Embed

Satellite Type and Status

DEBRISIN ORBIT

Key statistics

Satellite FENGYUN 1C DEB at a glance.

Uptime

9714

Days in orbit

Revolutions

≈ 14.2

Per day

Orbit

SSO

Sun Synchronous Orbit

Inclination

99.1

Latest

Satellite identification and parameters

Extended collection of information and parameters for FENGYUN 1C DEB.

Object identification

Identified? True

Debris? True

Object name: FENGYUN 1C DEB

International designator: 1999-025DXF

Object number (NORAD): 36278

Object ID (CCSDS): 36278

Country: PEOPLES REPUBLIC OF CHINA (PRC)

Current information (Y/N): Y

RCS size: SMALL

Orbital parameters

Period: 101.598 minutes

Inclination: 99.1236 deg

SMA: 7212.454 km

Apoapsis: 878.557 km

Periapsis: 790.08 km

RAAN: 256.1206 deg

Eccentricy: 0.00613363

Argument of periapsis: 315.5831 deg

Mean anomaly: 44.0433 deg

Mean motion: 14.17353569 rev/day

Mean motion (dot): 0.000017 rev/day2

B* drag term: 0.0008477729 1/REarth

Two-line elements (TLE)

Creation date: Dec. 4, 2025, 10:52 a.m.

Reference frame: TEME

Reference center: EARTH

Epoch: Dec. 4, 2025, 1:21 a.m. UTC

TLE line 0: 0 FENGYUN 1C DEB

TLE line 1: 1 36278U 99025DXF 25338.05634773 .00001700 00000-0 84777-3 0 9991

TLE line 2: 2 36278 99.1236 256.1206 0061336 315.5831 44.0433 14.17353569933530

Live tracking on map

Real-time ground track for satellite FENGYUN 1C DEB.

In-orbit conjunctions

A list of the most updated potential collisions computed for object FENGYUN 1C DEB.

Target Orbit TCA Probability of collision Miss distance Type
FENGYUN 1C SSO 2025-11-10 08:21:49 0.0003112747 435.0 (m) PAYLOAD
CZ-6A DEB LEO 2025-01-16 15:48:53 0.001232977 359.0 (m) DEBRIS
CZ-6A DEB LEO 2024-09-30 05:56:20 0.0001016411 202.0 (m) DEBRIS

Associated space launch

Chinese polar orbiting meteorological satellite

FENGYUN 1C DEB was lifted into orbit during the mission ‘Long March 4B | Feng Yun 1C’, on board a Long March 4B space rocket.

The launch took place on May 10, 1999, 1:33 a.m. from Launch Complex 7.

For more information about the launch, click the button.

Launch to space Long March 4B | Feng Yun 1C
Long March 4B | Feng Yun 1C

Agency: N/A

Status: Launch Successful

Launch date: May 10, 1999, 1:33 a.m. UTC

Rocket: Long March 4B

Launch pad: Launch Complex 7

Location: Taiyuan Satellite Launch Center, People's Republic of China

...

Latest news about this satellite

There are no fresh news available about this satellite. Check back as we update our databases every day.


Newsletter sign-up

Weekly statistics, charts and insights to help you stay on top of the space industry.